"2016-04-27 00:00:00",1582491,4.721,48.39,8.21,1.46,9.31,101.7216,3.693,4.978,62.05,0,110,13.26,4.46,10.4
"2016-04-27 00:00:30",1582492,5.126,50.38,8.78,1.401,9.53,101.7163,3.679,4.921,61.9,0,110,13.26,4.44,12.4
"2016-04-27 00:01:00",1582493,5.485,59.61,7.983,1.39,9.8,101.7058,3.652,4.93,61.87,0,110,13.26,4.42,21.6
"2016-04-27 00:01:30",1582494,4.614,55.22,9.06,1.561,8.53,101.6971,3.63,4.844,61.75,0,110,13.26,4.39,17.2
"2016-04-27 00:02:00",1582495,3.361,42.56,5.012,0.341,5.917,101.6923,3.618,4.675,61.64,0,110,13.3,4.38,4.6
"2016-04-27 00:02:30",1582496,3.21,31.61,23.24,1.844,7.647,101.6932,3.62,4.745,61.92,0,110,13.26,4.38,353.6
"2016-04-27 00:03:00",1582497,2.83,29.23,9.17,1.514,7.938,101.6912,3.615,4.823,62.26,0,110,13.26,4.38,351.2
"2016-04-27 00:03:30",1582498,3.674,33.96,8.05,1.486,8.67,101.6903,3.613,4.838,62.43,0,110,13.26,4.38,356.0
"2016-04-27 00:04:00",1582499,4.533,37.3,7.683,1.391,9.75,101.6748,3.573,4.862,62.26,0,110,13.26,4.34,359.3
"2016-04-27 00:04:30",1582500,4.634,42.28,7.16,1.189,8.27,101.6638,3.545,4.719,61.99,0,110,13.26,4.31,4.3
"2016-04-27 00:05:00",1582501,3.008,27.86,3.004,0.269,5.896,101.6618,3.54,4.603,61.82,0,110,13.3,4.30,349.9
"2016-04-27 00:05:30",1582502,3.524,32.94,8.47,1.398,7.298,101.661,3.538,4.698,61.85,0,110,13.26,4.30,354.9
"2016-04-27 00:06:00",1582503,5.321,42.79,6.954,1.32,9.49,101.6604,3.536,4.788,61.89,0,110,13.26,4.30,4.8
"2016-04-27 00:06:30",1582504,5.111,39.17,8.67,1.43,9.28,101.6601,3.535,4.724,61.9,0,110,13.26,4.30,1.2
"2016-04-27 00:07:00",1582505,5.255,45.5,8.34,1.405,9.76,101.6607,3.537,4.738,62.06,0,110,13.26,4.30,7.5
"2016-04-27 00:07:30",1582506,4.217,38.03,10.82,1.261,7.583,101.6604,3.536,4.705,62.06,0,110,13.27,4.30,0.0
"2016-04-27 00:08:00",1582507,2.961,24.86,4.907,0.476,6.04,101.6551,3.523,4.563,62.04,0,110,13.31,4.29,346.9
"2016-04-27 00:08:30",1582508,3.851,30.36,8.7,1.172,7.705,101.6466,3.501,4.724,62.34,0,110,13.27,4.27,352.4
"2016-04-27 00:09:00",1582509,4.368,39.82,10.52,1.285,9.15,101.6401,3.484,4.702,62.34,0,110,13.27,4.25,1.8
"2016-04-27 00:09:30",1582510,3.137,29.91,7.045,1.105,7.878,101.6381,3.479,4.682,62.45,0,110,13.27,4.24,351.9
"2016-04-27 00:10:00",1582511,4.217,37.96,8.62,1.284,8.79,101.6296,3.458,4.728,62.64,0,110,13.27,4.22,360.0
"2016-04-27 00:10:30",1582512,5.297,47.86,6.705,1.305,8.24,101.6296,3.458,4.618,62.49,0,110,13.27,4.22,9.9
"2016-04-27 00:11:00",1582513,4.414,43.08,2.111,0.548,6.106,101.6279,3.453,4.515,62.18,0,110,13.27,4.22,5.1
"2016-04-27 00:11:30",1582514,4.143,40.68,9.05,1.411,8.18,101.6282,3.454,4.649,62.2,0,110,13.27,4.22,2.7
"2016-04-27 00:12:00",1582515,4.44,31.83,8.2,1.594,8.96,101.6282,3.454,4.679,62.18,0,110,13.26,4.22,353.8
"2016-04-27 00:12:30",1582516,4.75,31.93,8.55,1.485,8.58,101.6282,3.454,4.66,62.18,0,110,13.27,4.22,353.9
"2016-04-27 00:13:00",1582517,3.992,35.86,7.452,1.413,8.56,101.6282,3.454,4.635,62.24,0,110,13.27,4.22,357.9
"2016-04-27 00:13:30",1582518,3.978,36.3,6.78,1.162,7.351,101.6282,3.454,4.567,62.12,0,110,13.27,4.22,358.3
"2016-04-27 00:14:00",1582519,4.096,36.69,4.889,0.935,6.134,101.6282,3.454,4.509,61.95,0,110,13.27,4.22,358.7
"2016-04-27 00:14:30",1582520,5.268,40.35,9.76,1.41,8.5,101.6282,3.454,4.613,62.05,0,110,13.27,4.22,2.3
"2016-04-27 00:15:00",1582521,4.428,43.21,7.734,1.666,9.57,101.6282,3.454,4.755,62.19,0,110,13.27,4.22,5.2
"2016-04-27 00:15:30",1582522,3.843,42.61,7.918,1.425,8.34,101.6282,3.454,4.586,62.08,0,110.1,13.26,4.22,4.6
"2016-04-27 00:16:00",1582523,4.43,42.38,10.35,1.554,8.6,101.6245,3.445,4.632,62.17,0,110,13.26,4.21,4.4
"2016-04-27 00:16:30",1582524,2.933,35,4.457,1.054,6.48,101.62,3.433,4.508,62.05,0,110,13.27,4.20,357.0
"2016-04-27 00:17:00",1582525,4.09,37.5,6.86,1.243,7.196,101.6138,3.417,4.497,62.01,0,110,13.26,4.18,359.5
"2016-04-27 00:17:30",1582526,4.586,34.15,6.849,1.372,8.43,101.6098,3.407,4.624,62.09,0,110,13.27,4.17,356.1
"2016-04-27 00:18:00",1582527,4.57,41.92,8.67,1.621,9.3,101.607,3.4,4.675,62.05,0,110,13.26,4.16,3.9
"2016-04-27 00:18:30",1582528,4.706,45.92,6.887,1.196,9.55,101.5991,3.38,4.639,62,0,110,13.26,4.14,7.9
"2016-04-27 00:19:00",1582529,4.42,45.55,6.592,1.23,8.93,101.5943,3.367,4.624,62.01,0,110,13.26,4.13,7.5
"2016-04-27 00:19:30",1582530,3.09,39.67,7.08,1.354,6.494,101.5943,3.367,4.447,61.88,0,110,13.26,4.13,1.7
"2016-04-27 00:20:00",1582531,3.223,43.19,5.553,1.278,6.651,101.5943,3.367,4.401,61.88,0,110,13.26,4.13,5.2
"2016-04-27 00:20:30",1582532,3.671,36.33,7.693,1.496,8.18,101.5943,3.367,4.568,62.09,0,110,13.26,4.13,358.3
"2016-04-27 00:21:00",1582533,4.465,44.67,8.61,1.496,8.65,101.5943,3.367,4.543,62.22,0,110,13.26,4.13,6.7
"2016-04-27 00:21:30",1582534,4.469,43.15,7.137,1.459,9.48,101.5943,3.367,4.614,62.37,0,110,13.26,4.13,5.2
"2016-04-27 00:22:00",1582535,4.542,42.28,8.02,1.384,9.49,101.5937,3.366,4.552,62.28,0,110,13.26,4.13,4.3
"2016-04-27 00:22:30",1582536,3.07,35.08,4.249,0.611,6.145,101.5906,3.358,4.461,62.18,0,110,13.26,4.12,357.1
"2016-04-27 00:23:00",1582537,3.354,33.14,3.477,0.794,5.93,101.583,3.339,4.411,62.15,0,110,13.27,4.10,355.1
"2016-04-27 00:23:30",1582538,4.463,39.9,6.59,1.351,8.44,101.5677,3.3,4.526,62.29,0,110,13.27,4.06,1.9
"2016-04-27 00:24:00",1582539,5.353,43.59,7.555,1.251,10.14,101.5615,3.284,4.576,62.36,0,110,13.27,4.05,5.6
"2016-04-27 00:24:30",1582540,4.192,45.86,7.665,1.371,9.01,101.5604,3.281,4.548,62.35,0,110,13.27,4.04,7.9
"2016-04-27 00:25:00",1582541,3.223,40.93,7.382,1.401,8.09,101.5604,3.281,4.517,62.39,0,109.9,13.27,4.04,2.9
"2016-04-27 00:25:30",1582542,3.373,38.93,4.889,0.891,6.493,101.5604,3.281,4.343,62.19,0,110,13.27,4.04,0.9
"2016-04-27 00:26:00",1582543,3.009,36.03,3.236,0.708,5.95,101.5604,3.281,4.334,62.21,0,110,13.27,4.04,358.0
"2016-04-27 00:26:30",1582544,4.253,41.64,6.403,1.444,8.25,101.5604,3.281,4.495,62.38,0,110,13.27,4.04,3.6
"2016-04-27 00:27:00",1582545,4.55,42.34,7.841,1.429,9.88,101.5604,3.281,4.606,62.45,0,110,13.27,4.04,4.3
"2016-04-27 00:27:30",1582546,5.073,45.8,6.989,1.348,9.88,101.5601,3.28,4.56,62.47,0,110,13.27,4.04,7.8
"2016-04-27 00:28:00",1582547,4.622,45.13,7.184,1.394,8.18,101.5578,3.274,4.438,62.33,0,110,13.27,4.04,7.1
"2016-04-27 00:28:30",1582548,4.057,43.49,5.118,0.846,6.826,101.5462,3.245,4.406,62.29,0,110,13.27,4.01,5.5
"2016-04-27 00:29:00",1582549,4.138,45.87,6.851,1.284,7.575,101.5389,3.226,4.371,62.32,0,110,13.27,3.99,7.9
"2016-04-27 00:29:30",1582550,4.327,46.68,7.17,1.327,9.03,101.533,3.211,4.492,62.46,0,110,13.27,3.97,8.7
"2016-04-27 00:30:00",1582551,4.141,47.39,6.813,1.4,8.65,101.5287,3.2,4.44,62.45,0,110,13.27,3.96,9.4
"2016-04-27 00:30:30",1582552,3.186,41.33,7.14,1.48,8.79,101.527,3.196,4.481,62.49,0,110,13.27,3.96,3.3
"2016-04-27 00:31:00",1582553,3.679,44.08,9.63,1.606,8.69,101.5267,3.195,4.415,62.46,0,109.9,13.27,3.96,6.1
"2016-04-27 00:31:30",1582554,3.419,42.81,1.487,0.298,5.697,101.5273,3.196,4.244,62.33,0,110,13.28,3.96,4.8
"2016-04-27 00:32:00",1582555,4.305,49.6,7.538,1.328,7.224,101.5262,3.194,4.342,62.41,0,109.9,13.27,3.96,11.6
"2016-04-27 00:32:30",1582556,5.026,53,7.108,1.375,9.25,101.5222,3.183,4.402,62.45,0,110,13.27,3.95,15.0
"2016-04-27 00:33:00",1582557,5.641,56.95,7.595,1.371,9.63,101.5117,3.157,4.445,62.49,0,110,13.27,3.92,19.0
"2016-04-27 00:33:30",1582558,5.229,55.18,7.621,1.321,9.82,101.5019,3.132,4.449,62.58,0,110,13.27,3.89,17.2
"2016-04-27 00:34:00",1582559,4.623,49.01,7.306,1.478,8.55,101.4957,3.116,4.411,62.56,0,109.9,13.27,3.88,11.0
"2016-04-27 00:34:30",1582560,3.454,40.81,1.465,0.368,5.821,101.4966,3.118,4.19,62.33,0,109.9,13.32,3.88,2.8
"2016-04-27 00:35:00",1582561,4.654,45.61,8.46,1.637,7.843,101.4945,3.113,4.302,62.34,0,109.9,13.27,3.88,7.6
"2016-04-27 00:35:30",1582562,5.586,48.55,8.57,1.321,8.95,101.4983,3.122,4.414,62.42,0,109.9,13.27,3.89,10.5
"2016-04-27 00:36:00",1582563,5.731,53.85,7.699,1.432,9.48,101.4988,3.124,4.398,62.45,0,109.9,13.27,3.89,15.8
"2016-04-27 00:36:30",1582564,5.662,48.26,7.227,1.383,9.75,101.4966,3.118,4.412,62.47,0,109.9,13.27,3.88,10.3
"2016-04-27 00:37:00",1582565,4.773,43.75,8.08,1.445,8.34,101.4867,3.093,4.35,62.42,0,109.9,13.27,3.86,5.8
"2016-04-27 00:37:30",1582566,3.54,37.58,5.392,0.856,6.62,101.4831,3.084,4.25,62.41,0,109.9,13.27,3.85,359.6
"2016-04-27 00:38:00",1582567,4.27,42.69,7.933,1.534,7.674,101.4698,3.05,4.243,62.43,0,109.9,13.27,3.81,4.7
"2016-04-27 00:38:30",1582568,4.27,43.02,7.207,1.388,8.42,101.4698,3.05,4.248,62.56,0,109.9,13.27,3.81,5.0
"2016-04-27 00:39:00",1582569,5.241,47.85,7.922,1.301,9.66,101.4744,3.061,4.364,63.05,0,109.9,13.27,3.82,9.8
"2016-04-27 00:39:30",1582570,5.485,45.31,7.058,1.442,9.68,101.4747,3.062,4.33,63.07,0,109.9,13.27,3.82,7.3
"2016-04-27 00:40:00",1582571,4.846,44.78,6.408,1.393,7.688,101.4753,3.064,4.199,62.93,0,109.9,13.27,3.83,6.8
"2016-04-27 00:40:30",1582572,4.465,47.67,10.2,1.194,7.497,101.4679,3.045,4.181,62.94,0,109.9,13.27,3.81,9.7
"2016-04-27 00:41:00",1582573,5.331,50.34,7.326,1.343,8.5,101.4634,3.033,4.251,63.1,0,109.9,13.27,3.80,12.3
"2016-04-27 00:41:30",1582574,5.455,48.65,6.867,1.44,8.7,101.4575,3.018,4.226,63.2,0,109.9,13.28,3.78,10.7
"2016-04-27 00:42:00",1582575,5.603,47.26,7.325,1.434,8.93,101.4453,2.987,4.257,63.32,0,109.9,13.28,3.75,9.3
"2016-04-27 00:42:30",1582576,6.374,48.88,7.838,1.37,9.3,101.443,2.981,4.281,63.25,0,109.9,13.27,3.74,10.9
"2016-04-27 00:43:00",1582577,6.062,47.03,7.555,1.351,8.48,101.4422,2.979,4.17,63.12,0,110,13.27,3.74,9.0
"2016-04-27 00:43:30",1582578,6.432,49.26,8.3,1.454,8.45,101.4436,2.983,4.222,63.17,0,109.9,13.28,3.75,11.3
"2016-04-27 00:44:00",1582579,5.965,54.65,8.05,1.254,8.36,101.4445,2.985,4.164,63.22,0,109.9,13.28,3.75,16.7
"2016-04-27 00:44:30",1582580,5.339,54.83,6.608,1.492,7.977,101.4388,2.971,4.139,63.32,0,109.9,13.28,3.73,16.8
"2016-04-27 00:45:00",1582581,6.483,61.08,7.648,1.39,9.87,101.4318,2.953,4.245,63.66,0,109.9,13.28,3.72,23.1
"2016-04-27 00:45:30",1582582,6.677,68.04,7.436,1.459,9.12,101.4295,2.947,4.288,64.15,0,109.9,13.28,3.71,30.0
"2016-04-27 00:46:00",1582583,6.121,63.75,8.37,1.404,8.03,101.4241,2.933,4.113,64.57,0,109.9,13.28,3.70,25.8
"2016-04-27 00:46:30",1582584,5.469,57.58,8.95,1.389,7.698,101.414,2.907,4.09,64.83,0,109.9,13.28,3.67,19.6
"2016-04-27 00:47:00",1582585,5.663,66.2,9.77,1.55,8.55,101.4126,2.904,4.119,64.92,0,109.9,13.28,3.67,28.2
"2016-04-27 00:47:30",1582586,5.484,63.16,8.08,1.373,8.57,101.4143,2.908,4.128,65,0,109.9,13.28,3.67,25.2
"2016-04-27 00:48:00",1582587,6.502,55.5,7.824,1.437,9.14,101.4157,2.912,4.21,65.39,0,109.9,13.28,3.67,17.5
"2016-04-27 00:48:30",1582588,6.116,52.8,7.979,1.27,7.965,101.4058,2.886,4.137,65.55,0,109.9,13.28,3.65,14.8
"2016-04-27 00:49:00",1582589,6.478,55.92,6.615,1.406,8.04,101.3914,2.85,4.105,65.57,0,109.9,13.28,3.61,17.9
"2016-04-27 00:49:30",1582590,6.726,60.33,7.524,1.394,8.13,101.3846,2.832,4.063,65.37,0,109.9,13.28,3.59,22.3
"2016-04-27 00:50:00",1582591,6.571,55.86,9.07,1.41,8.03,101.3835,2.829,4.042,65.39,0,109.9,13.28,3.59,17.9
"2016-04-27 00:50:30",1582592,7.099,59.61,8.61,1.335,8.71,101.3736,2.804,4.074,65.54,0,109.9,13.28,3.57,21.6
"2016-04-27 00:51:00",1582593,6.841,56.39,8.37,1.362,9.39,101.3654,2.783,4.126,65.64,0,109.9,13.28,3.54,18.4
"2016-04-27 00:51:30",1582594,6.808,62.96,8.61,1.417,8.66,101.3533,2.752,4.093,65.59,0,109.9,13.28,3.51,25.0
"2016-04-27 00:52:00",1582595,6.67,59.04,8.97,1.509,7.966,101.3547,2.756,3.958,65.51,0,109.9,13.28,3.52,21.0
"2016-04-27 00:52:30",1582596,6.024,55.46,6.319,1.401,6.912,101.3459,2.734,3.924,65.58,0,109.9,13.28,3.50,17.5
"2016-04-27 00:53:00",1582597,6.66,56.49,7.041,1.395,8.71,101.3324,2.699,3.951,65.66,0,109.9,13.28,3.46,18.5
"2016-04-27 00:53:30",1582598,7.337,58.87,7.846,1.417,9.3,101.3211,2.67,4.014,65.81,0,109.9,13.28,3.43,20.9
"2016-04-27 00:54:00",1582599,7.984,60.26,6.39,1.327,9.23,101.3219,2.672,3.99,65.49,0,109.9,13.28,3.43,22.3
"2016-04-27 00:54:30",1582600,8.06,63.7,6.931,1.263,9.49,101.3123,2.648,4.005,65.27,0,109.9,13.28,3.41,25.7
"2016-04-27 00:55:00",1582601,6.366,57.18,7.476,1.407,7.616,101.2988,2.613,3.892,65.08,0,109.9,13.28,3.37,19.2
"2016-04-27 00:55:30",1582602,5.954,54.84,7.139,1.236,6.688,101.2894,2.589,3.813,65.07,0,109.9,13.28,3.35,16.8
"2016-04-27 00:56:00",1582603,5.743,52.21,6.959,1.238,7.088,101.2883,2.586,3.803,65.18,0,109.9,13.28,3.35,14.2
"2016-04-27 00:56:30",1582604,7.69,52.52,7.306,1.417,8.99,101.2745,2.551,3.843,65.38,0,109.9,13.28,3.31,14.5
"2016-04-27 00:57:00",1582605,7.725,55.48,6.797,1.362,9.25,101.2626,2.521,3.894,65.46,0,109.9,13.28,3.28,17.5
"2016-04-27 00:57:30",1582606,8.01,55.43,7.438,1.291,9.19,101.2555,2.503,3.852,65.55,0,109.9,13.28,3.26,17.4
"2016-04-27 00:58:00",1582607,7.488,54.48,7.139,1.334,8.97,101.2555,2.503,3.797,65.55,0,109.9,13.28,3.26,16.5
"2016-04-27 00:58:30",1582608,7.991,53.74,7.444,1.221,9.31,101.247,2.481,3.823,65.68,0,109.9,13.29,3.24,15.7
"2016-04-27 00:59:00",1582609,7.273,52.1,8.46,1.627,8.38,101.2388,2.46,3.738,65.7,0,109.9,13.29,3.22,14.1
"2016-04-27 00:59:30",1582610,6.552,55.75,6.663,1.298,7.842,101.2275,2.431,3.649,65.76,0,109.9,13.29,3.19,17.8
"2016-04-27 01:00:00",1582611,6.217,54.75,6.355,1.383,7.543,101.2216,2.416,3.692,65.83,0,109.9,13.29,3.18,16.8
"2016-04-27 01:00:30",1582612,7.904,58.46,7.091,1.409,9.26,101.2216,2.416,3.752,66.04,0,109.9,13.29,3.18,20.5
"2016-04-27 01:01:00",1582613,8.4,62.13,7.31,1.278,9.32,101.2216,2.416,3.758,66.02,0,109.9,13.29,3.18,24.1
"2016-04-27 01:01:30",1582614,8.52,61.05,6.951,1.339,9.04,101.2131,2.395,3.716,66,0,109.9,13.29,3.15,23.0
"2016-04-27 01:02:00",1582615,8.59,57.87,8.27,1.317,9.22,101.2046,2.373,3.725,66.18,0,109.9,13.29,3.13,19.9
"2016-04-27 01:02:30",1582616,8.92,60.39,7.041,1.269,9.13,101.2009,2.363,3.7,66.19,0,109.9,13.29,3.12,22.4
"2016-04-27 01:03:00",1582617,8.94,62.76,6.644,1.414,9.07,101.1919,2.34,3.678,66.05,0,109.9,13.29,3.10,24.8
"2016-04-27 01:03:30",1582618,8.55,63.97,7.104,1.308,9.09,101.1876,2.33,3.686,66.15,0,109.9,13.28,3.09,26.0
"2016-04-27 01:04:00",1582619,8.23,62.98,7.218,1.264,8.65,101.1882,2.331,3.667,66.4,0,109.9,13.28,3.09,25.0
"2016-04-27 01:04:30",1582620,7.743,64.65,6.732,1.25,8.2,101.1876,2.33,3.602,66.7,0,109.9,13.28,3.09,26.7
"2016-04-27 01:05:00",1582621,7.716,59.22,7.454,1.378,6.544,101.1769,2.302,3.526,66.95,0,109.9,13.28,3.06,21.2
"2016-04-27 01:05:30",1582622,7.786,61.99,5.703,1.487,7.352,101.1591,2.257,3.479,67.08,0,109.9,13.29,3.02,24.0
"2016-04-27 01:06:00",1582623,8.02,57.26,6.612,1.246,7.329,101.1563,2.25,3.522,67.33,0,109.9,13.29,3.01,19.3
"2016-04-27 01:06:30",1582624,8.57,62.88,6.626,1.369,8.72,101.158,2.254,3.61,67.38,0,109.9,13.29,3.01,24.9
"2016-04-27 01:07:00",1582625,9.11,62.28,6.29,1.251,9.19,101.156,2.249,3.599,67.32,0,109.9,13.29,3.01,24.3
"2016-04-27 01:07:30",1582626,8.72,60.42,6.627,1.235,8.98,101.1425,2.214,3.574,67.28,0,109.9,13.28,2.97,22.4
"2016-04-27 01:08:00",1582627,8.58,58.95,7.21,1.243,8.81,101.1304,2.183,3.548,67.45,0,109.9,13.28,2.94,21.0
"2016-04-27 01:08:30",1582628,8.74,61.21,7.106,1.27,8.85,101.1341,2.193,3.523,67.58,0,109.9,13.28,2.95,23.2
"2016-04-27 01:09:00",1582629,8.92,61.03,6.63,1.252,9.07,101.1247,2.169,3.512,67.66,0,109.9,13.28,2.93,23.0
"2016-04-27 01:09:30",1582630,8.67,61.99,6.563,1.349,8.84,101.1154,2.145,3.499,67.56,0,109.9,13.28,2.90,24.0
"2016-04-27 01:10:00",1582631,8.76,62.26,6.593,1.172,9.04,101.1019,2.111,3.46,67.53,0,109.9,13.28,2.87,24.3
"2016-04-27 01:10:30",1582632,8.88,59.55,6.121,1.258,8.58,101.103,2.114,3.47,67.58,0,109.9,13.28,2.87,21.5
"2016-04-27 01:11:00",1582633,8.51,58.48,6.906,1.245,8.32,101.0872,2.073,3.413,67.52,0,109.9,13.28,2.83,20.5
"2016-04-27 01:11:30",1582634,8.03,61.07,7.126,1.245,8.94,101.0716,2.034,3.383,67.49,0,109.9,13.28,2.79,23.1
"2016-04-27 01:12:00",1582635,7.86,62.57,6.553,1.265,8.92,101.0705,2.031,3.39,67.53,0,109.9,13.28,2.79,24.6
"2016-04-27 01:12:30",1582636,7.411,66.09,6.712,1.282,8.54,101.0699,2.029,3.39,67.53,0,109.9,13.28,2.79,28.1
"2016-04-27 01:13:00",1582637,6.619,60.12,6.861,1.365,6.77,101.0657,2.018,3.158,67.37,0,109.9,13.28,2.78,22.1
"2016-04-27 01:13:30",1582638,5.859,55.34,4.864,0.754,5.634,101.0533,1.987,3.145,67.4,0,109.9,13.29,2.75,17.3
"2016-04-27 01:14:00",1582639,6.561,60.38,6.397,1.331,7.412,101.0527,1.985,3.206,67.44,0,109.9,13.29,2.74,22.4
"2016-04-27 01:14:30",1582640,7.344,65.99,6.995,1.272,9.02,101.0465,1.969,3.273,67.55,0,109.9,13.29,2.73,28.0
"2016-04-27 01:15:00",1582641,7.748,61.59,7.048,1.391,8.72,101.0437,1.962,3.261,67.64,0,109.9,13.29,2.72,23.6
"2016-04-27 01:15:30",1582642,7.848,60.44,7.311,1.343,8.43,101.0437,1.962,3.256,67.61,0,109.9,13.29,2.72,22.4
"2016-04-27 01:16:00",1582643,8.33,59.96,6.811,1.239,8.51,101.0448,1.965,3.251,67.53,0,109.9,13.29,2.72,22.0
"2016-04-27 01:16:30",1582644,8.19,58.12,7.122,1.305,8.36,101.0315,1.931,3.211,67.34,0,109.9,13.29,2.69,20.1
"2016-04-27 01:17:00",1582645,8.61,58.9,6.406,1.267,8.99,101.0174,1.895,3.22,67.34,0,109.9,13.29,2.65,20.9
"2016-04-27 01:17:30",1582646,7.422,57.84,7.18,1.372,8.42,101.0117,1.881,3.212,67.44,0,109.9,13.29,2.64,19.8
"2016-04-27 01:18:00",1582647,7.616,57.06,7.475,1.403,7.714,101.0129,1.884,3.082,67.29,0,109.9,13.29,2.64,19.1
"2016-04-27 01:18:30",1582648,7.891,59.7,7.19,1.366,8.5,101.0126,1.883,3.151,67.42,0,109.9,13.29,2.64,21.7
"2016-04-27 01:19:00",1582649,7.81,59.01,6.713,1.335,8.05,101.0098,1.876,3.096,67.35,0,109.9,13.29,2.63,21.0
"2016-04-27 01:19:30",1582650,7.94,60.72,6.57,1.354,8.81,101.0016,1.855,3.15,67.51,0,109.9,13.29,2.61,22.7
"2016-04-27 01:20:00",1582651,8.07,61.07,6.696,1.327,8.81,100.9974,1.844,3.151,67.7,0,109.9,13.29,2.60,23.1
"2016-04-27 01:20:30",1582652,8.57,60.38,6.757,1.206,8.63,100.9846,1.812,3.159,67.75,0,109.9,13.29,2.57,22.4
"2016-04-27 01:21:00",1582653,8.35,59.89,6.641,1.306,8.38,100.9824,1.806,3.107,67.81,0,109.9,13.29,2.56,21.9
"2016-04-27 01:21:30",1582654,8.37,57.87,6.413,1.178,8.44,100.9827,1.807,3.09,67.86,0,109.9,13.29,2.57,19.9
"2016-04-27 01:22:00",1582655,8.32,60.39,6.535,1.216,8.38,100.9827,1.807,3.088,67.98,0,109.9,13.29,2.57,22.4
"2016-04-27 01:22:30",1582656,8,59.42,6.684,1.302,8.64,100.9796,1.799,3.05,67.93,0,109.8,13.29,2.56,21.4
"2016-04-27 01:23:00",1582657,8.2,60.05,6.096,1.271,8.49,100.9677,1.768,3.075,67.98,0,109.9,13.29,2.53,22.0
"2016-04-27 01:23:30",1582658,8.23,62.14,6.773,1.258,8.17,100.9612,1.752,3.069,67.95,0,109.8,13.29,2.51,24.1
"2016-04-27 01:24:00",1582659,8.35,60.87,6.776,1.191,8.16,100.951,1.726,3.022,67.83,0,109.8,13.29,2.48,22.9
"2016-04-27 01:24:30",1582660,7.871,60.49,6.599,1.256,8.22,100.9504,1.724,3.009,67.68,0,109.8,13.29,2.48,22.5
"2016-04-27 01:25:00",1582661,7.683,58.94,7.253,1.305,7.807,100.9504,1.724,3.002,67.72,0,109.8,13.28,2.48,20.9
"2016-04-27 01:25:30",1582662,7.229,55.3,6.918,1.384,6.853,100.9479,1.718,2.883,67.53,0,109.8,13.28,2.48,17.3
"2016-04-27 01:26:00",1582663,6.883,53.38,6.2,1.28,6.083,100.9369,1.69,2.8,67.54,0,109.8,13.29,2.45,15.4
"2016-04-27 01:26:30",1582664,7.817,54.23,6.795,1.508,7.103,100.9238,1.657,2.857,67.48,0,109.8,13.29,2.41,16.2
"2016-04-27 01:27:00",1582665,8.51,58.21,7.311,1.405,8.02,100.919,1.644,2.953,67.61,0,109.8,13.29,2.40,20.2
"2016-04-27 01:27:30",1582666,9.42,58.8,6.788,1.178,8.62,100.9165,1.638,2.935,67.96,0,109.8,13.29,2.40,20.8
"2016-04-27 01:28:00",1582667,9.15,58.8,6.625,1.283,8.73,100.9159,1.636,2.919,68.23,0,109.8,13.29,2.39,20.8
"2016-04-27 01:28:30",1582668,9.02,58.48,6.364,1.271,8.93,100.8987,1.592,2.924,68.25,0,109.8,13.29,2.35,20.5
"2016-04-27 01:29:00",1582669,8.92,59.97,6.149,1.31,8.62,100.8834,1.553,2.913,68.24,0,109.8,13.29,2.31,22.0
"2016-04-27 01:29:30",1582670,9.15,60.06,6.433,1.253,8.49,100.8826,1.551,2.87,68.25,0,109.8,13.29,2.31,22.1
"2016-04-27 01:30:00",1582671,9.09,58.89,6.658,1.173,8.73,100.8814,1.548,2.848,68.23,0,109.8,13.29,2.31,20.9
"2016-04-27 01:30:30",1582672,8.96,59.58,6.21,1.273,8.39,100.8681,1.514,2.862,68.2,0,109.8,13.29,2.27,21.6
"2016-04-27 01:31:00",1582673,9.14,58.55,6.597,1.171,8.41,100.8625,1.5,2.803,68.12,0,109.8,13.29,2.26,20.5
"2016-04-27 01:31:30",1582674,8.98,59.3,6.849,1.274,8.57,100.8517,1.473,2.817,68.17,0,109.8,13.3,2.23,21.3
"2016-04-27 01:32:00",1582675,8.69,60.49,6.693,1.301,8.44,100.8486,1.465,2.792,68.31,0,109.8,13.3,2.22,22.5
"2016-04-27 01:32:30",1582676,8.79,58.97,6.199,1.263,8.32,100.848,1.463,2.802,68.35,0,109.8,13.3,2.22,21.0
"2016-04-27 01:33:00",1582677,8.86,59.15,6.359,1.244,8.39,100.8367,1.434,2.769,68.42,0,109.8,13.3,2.19,21.2
"2016-04-27 01:33:30",1582678,8.82,59.11,6.931,1.256,8.56,100.8305,1.418,2.72,68.45,0,109.8,13.3,2.18,21.1
"2016-04-27 01:34:00",1582679,8.78,58.4,6.105,1.269,8.35,100.8175,1.385,2.76,68.52,0,109.8,13.3,2.14,20.4
"2016-04-27 01:34:30",1582680,8.94,58.17,6.301,1.169,8.29,100.8147,1.378,2.711,68.56,0,109.8,13.3,2.13,20.2
"2016-04-27 01:35:00",1582681,8.46,58.22,6.772,1.288,8.39,100.8147,1.378,2.684,68.63,0,109.8,13.3,2.13,20.2
"2016-04-27 01:35:30",1582682,8.48,59.65,6.277,1.218,8.5,100.8147,1.378,2.7,68.72,0,109.8,13.3,2.13,21.7
"2016-04-27 01:36:00",1582683,8.61,59.54,6.408,1.29,8.16,100.8135,1.375,2.677,68.76,0,109.8,13.3,2.13,21.5
"2016-04-27 01:36:30",1582684,8.86,60.7,6.235,1.161,7.942,100.8045,1.352,2.648,68.78,0,109.8,13.3,2.11,22.7
"2016-04-27 01:37:00",1582685,9.08,56.41,6.591,1.257,8.38,100.798,1.335,2.651,68.85,0,109.8,13.3,2.09,18.4
"2016-04-27 01:37:30",1582686,8.64,56.75,6.794,1.319,8.16,100.7903,1.316,2.672,68.99,0,109.8,13.3,2.07,18.8
"2016-04-27 01:38:00",1582687,9.13,54.4,6.507,1.171,8.34,100.7838,1.299,2.621,68.93,0,109.8,13.3,2.06,16.4
"2016-04-27 01:38:30",1582688,9.03,54.39,5.979,1.293,8.17,100.7853,1.303,2.619,68.94,0,109.8,13.3,2.06,16.4
"2016-04-27 01:39:00",1582689,8.97,52.78,6.677,1.284,7.942,100.7867,1.307,2.61,69.13,0,109.8,13.3,2.06,14.8
"2016-04-27 01:39:30",1582690,8.88,52.38,6.764,1.328,8.11,100.7853,1.303,2.582,69.58,0,109.8,13.3,2.06,14.4
"2016-04-27 01:40:00",1582691,8.82,54.78,6.849,1.173,8.32,100.7729,1.271,2.574,70.01,0,109.8,13.29,2.03,16.8
"2016-04-27 01:40:30",1582692,8.87,55.28,6.703,1.219,8.22,100.7647,1.25,2.587,70.13,0,109.8,13.3,2.01,17.3
"2016-04-27 01:41:00",1582693,8.77,54.44,6.438,1.368,7.975,100.7596,1.238,2.562,70.07,0,109.8,13.29,1.99,16.4
"2016-04-27 01:41:30",1582694,8.69,55.29,6.655,1.236,8.16,100.7602,1.239,2.549,70.36,0,109.8,13.29,2.00,17.3
"2016-04-27 01:42:00",1582695,8.8,52.53,6.76,1.284,7.926,100.7573,1.232,2.51,70.26,0,109.8,13.29,1.99,14.5
"2016-04-27 01:42:30",1582696,8.77,54.04,6.336,1.255,8.28,100.7486,1.209,2.523,70.24,0,109.8,13.3,1.97,16.0
"2016-04-27 01:43:00",1582697,8.89,56.57,6.192,1.272,8.45,100.7367,1.179,2.502,70.26,0,109.8,13.3,1.94,18.6
"2016-04-27 01:43:30",1582698,8.8,55.55,6.351,1.232,8.12,100.7322,1.168,2.498,70.24,0,109.8,13.3,1.92,17.5
"2016-04-27 01:44:00",1582699,8.8,52.5,6.335,1.214,8.2,100.7322,1.168,2.46,70.17,0,109.8,13.3,1.92,14.5
"2016-04-27 01:44:30",1582700,8.95,50.5,6.497,1.152,8.06,100.728,1.157,2.444,70.1,0,109.8,13.3,1.91,12.5
"2016-04-27 01:45:00",1582701,8.54,49.4,6.49,1.251,8.27,100.7147,1.123,2.405,69.91,0,109.8,13.3,1.88,11.4
"2016-04-27 01:45:30",1582702,8.21,49.7,6.212,1.241,8.09,100.7042,1.096,2.419,69.74,0,109.8,13.3,1.85,11.7
"2016-04-27 01:46:00",1582703,8.46,49.32,6.506,1.294,8.27,100.6974,1.079,2.392,69.6,0,109.8,13.3,1.83,11.3
"2016-04-27 01:46:30",1582704,9.14,50.77,6.408,1.204,8.22,100.698,1.08,2.391,69.75,0,109.8,13.3,1.84,12.8
"2016-04-27 01:47:00",1582705,9.48,51.87,6.549,1.249,8.03,100.6934,1.069,2.382,69.91,0,109.8,13.3,1.82,13.9
"2016-04-27 01:47:30",1582706,9.41,52.82,6.875,1.24,8.12,100.685,1.047,2.354,70.22,0,109.8,13.31,1.80,14.8
"2016-04-27 01:48:00",1582707,9.53,54.73,5.984,1.256,8.16,100.6759,1.024,2.361,70.5,0,109.8,13.31,1.78,16.7
"2016-04-27 01:48:30",1582708,9.62,54.32,6.356,1.216,8.08,100.6671,1.002,2.333,70.3,0,109.8,13.31,1.76,16.3
"2016-04-27 01:49:00",1582709,9.56,53.31,6.65,1.22,8.1,100.6669,1.001,2.287,70.16,0,109.8,13.31,1.76,15.3
"2016-04-27 01:49:30",1582710,9.35,54.95,6.23,1.214,8.32,100.6635,0.992,2.321,70.15,0,109.8,13.31,1.75,17.0
"2016-04-27 01:50:00",1582711,9.4,54.81,6.369,1.161,8.2,100.6533,0.966,2.278,70.13,0,109.8,13.31,1.72,16.8
"2016-04-27 01:50:30",1582712,9.02,52.55,6.64,1.292,7.784,100.6406,0.934,2.273,70.17,0,109.8,13.31,1.69,14.5